[[{"header":{"parameterUnit":"m.s-1","parameterCategory":2,"la1":30.2992,"la2":30.254,"lo1":-89.0895,"lo2":-89.0443,"dy":0.0025,"dx":0.0025,"nx":19,"ny":19,"refTime":"2026-05-06T03:00:00:Z","depth":"0","parameterNumber":2,"parameterNumberName":"U-component_of_CURRENTS"},"data":[0,0,0,0.3189,0.3189,0.3158,0.3158,0.3068,0.3067,0,0,0,0,0,0,0,0,0,0,0,0.3194,0.3194,0.3189,0.3189,0.3158,0.3158,0.3068,0.3067,0,0,0,0,0,0,0,0,0,0,0,0.3194,0.3194,0.3194,0.3189,0.3158,0.3158,0.3068,0.3102,0,0,0,0,0,0,0,0,0,0,0.3137,0.3154,0.3194,0.3194,0.3189,0.3158,0.3158,0.3104,0.3099,0.3071,0,0.307,0,0.3072,0.3061,0.3061,0,0,0,0.3178,0.3157,0.315,0.3194,0.3189,0.3158,0.3169,0.3102,0.3097,0.3065,0.3069,0.3066,0.307,0.306,0.306,0.3001,0.3001,0,0,0.318,0.3184,0.3154,0.3148,0.3184,0.317,0.3168,0.3099,0.3093,0.3068,0.3064,0.3069,0.306,0.3059,0.3001,0.3001,0,0,0,0.3192,0.3185,0.3181,0.3151,0.3152,0.3169,0.3167,0.3096,0.3095,0.3063,0.3068,0.3059,0.3058,0.3001,0.3001,0.3049,0,0,0,0.3193,0.3193,0.3182,0.3183,0.3154,0.3132,0.3166,0.31,0.3093,0.3068,0.3059,0.3057,0.3001,0.3001,0.3048,0.3071,0,0,0,0.3195,0.3194,0.3192,0.3184,0.3176,0.3133,0.3128,0.3099,0.3096,0.306,0.3057,0.3001,0.3001,0.3046,0.3069,0.3123,0,0,0,0.3198,0.3187,0.3192,0.318,0.3176,0.3159,0.3129,0.3104,0.3076,0.3059,0.3001,0.3001,0.3046,0.3067,0.312,0.3315,0.334,0,0,0.3185,0.3186,0.3179,0.3182,0.317,0.3162,0.3149,0.3099,0.3067,0.3017,0.3016,0.3048,0.3069,0.3122,0.332,0.3346,0,0,0,0.3175,0.3172,0.3168,0.3164,0.3155,0.3156,0.3121,0.3108,0.3072,0.3054,0.3037,0.3048,0.308,0.3192,0.3212,0.3292,0.3001,0.3001,0.3001,0.3158,0.3159,0.315,0.3152,0.3148,0.3144,0.3142,0.3117,0.3082,0.3079,0.3079,0.314,0.3259,0.3276,0.3354,0.3067,0.3067,0.3067,0.3067,0.3147,0.3142,0.3147,0.3141,0.3148,0.3144,0.3148,0.3142,0.3154,0.3109,0.314,0.3227,0.3302,0.3377,0.307,0.307,0.307,0.3069,0.3069,0.3145,0.3141,0.3143,0.3142,0.3145,0.3151,0.319,0.319,0.3194,0.3222,0.3359,0.336,0.3436,0.3246,0.3247,0.3247,0.3247,0.3248,0.3248,0.314,0.314,0.3134,0.3142,0.3139,0.3168,0.322,0.3277,0.3398,0.3431,0.3433,0.3484,0.3194,0.3199,0.3253,0.3252,0.3251,0.3251,0.3251,0.3105,0.3131,0.3124,0.312,0.313,0.3188,0.3276,0.3511,0.3584,0.3696,0.3791,0.3552,0.3561,0.3547,0.3559,0.3704,0.3704,0.3704,0.3704,0.3088,0.3098,0.309,0.308,0.3116,0.3181,0.3391,0.3625,0.3906,0.4046,0.4018,0.4029,0.4007,0.4038,0.4013,0.4033,0.4294,0.4294,0.4295,0.3046,0.3067,0.3041,0.3054,0.3087,0.32,0.3393,0.3675,0.4145,0.4316,0.4089,0.4064,0.4067,0.4026,0.4059,0.4017,0.4042,0,0]},{"header":{"parameterUnit":"m.s-1","parameterCategory":2,"la1":30.2992,"la2":30.254,"lo1":-89.0895,"lo2":-89.0443,"dy":0.0025,"dx":0.0025,"nx":19,"ny":19,"refTime":"2026-05-06T03:00:00:Z","depth":"0","parameterNumber":3,"parameterNumberName":"V-component_of_CURRENTS"},"data":[0,0,0,-0.1859,-0.1861,-0.1982,-0.1982,-0.2082,-0.2082,0,0,0,0,0,0,0,0,0,0,0,-0.1798,-0.1799,-0.1859,-0.1861,-0.1982,-0.1982,-0.2082,-0.2082,0,0,0,0,0,0,0,0,0,0,0,-0.1798,-0.1798,-0.1799,-0.1862,-0.1982,-0.1982,-0.2081,-0.2006,0,0,0,0,0,0,0,0,0,0,-0.1896,-0.1849,-0.1798,-0.1799,-0.1863,-0.1981,-0.1982,-0.2003,-0.201,-0.201,0,-0.2013,0,-0.2054,-0.2087,-0.2087,0,0,0,-0.1867,-0.1843,-0.1874,-0.1799,-0.1864,-0.1981,-0.1929,-0.2007,-0.2016,-0.2019,-0.2015,-0.202,-0.2056,-0.2088,-0.2088,-0.2102,-0.2101,0,0,-0.1861,-0.1827,-0.1868,-0.1878,-0.1874,-0.1925,-0.1933,-0.2013,-0.2012,-0.2015,-0.2023,-0.2058,-0.2088,-0.2089,-0.2102,-0.2102,0,0,0,-0.1838,-0.1821,-0.1852,-0.1873,-0.1902,-0.1929,-0.1937,-0.2009,-0.2018,-0.2024,-0.2059,-0.2089,-0.2089,-0.2103,-0.2102,-0.1973,0,0,0,-0.1834,-0.1808,-0.1848,-0.1831,-0.19,-0.1967,-0.1931,-0.2012,-0.2024,-0.2058,-0.2089,-0.209,-0.2103,-0.2102,-0.1977,-0.188,0,0,0,-0.1797,-0.1805,-0.1812,-0.1828,-0.188,-0.1966,-0.1981,-0.2016,-0.2044,-0.2087,-0.209,-0.2103,-0.2102,-0.1981,-0.1888,-0.1796,0,0,0,-0.1768,-0.1746,-0.181,-0.1797,-0.1879,-0.191,-0.1982,-0.2016,-0.2044,-0.2089,-0.2103,-0.2102,-0.1983,-0.1894,-0.1802,-0.1524,-0.1475,0,0,-0.172,-0.174,-0.1731,-0.1792,-0.1785,-0.1896,-0.189,-0.1962,-0.2031,-0.2075,-0.2076,-0.1976,-0.1889,-0.1797,-0.1471,-0.1422,0,0,0,-0.1703,-0.1688,-0.17,-0.1715,-0.1768,-0.1787,-0.1887,-0.1923,-0.1965,-0.2046,-0.1993,-0.1942,-0.1888,-0.1734,-0.1696,-0.155,-0.2098,-0.2098,-0.2098,-0.1592,-0.162,-0.1588,-0.1621,-0.1639,-0.1719,-0.1735,-0.1802,-0.1894,-0.1891,-0.1851,-0.1708,-0.1544,-0.1512,-0.1366,-0.1891,-0.1891,-0.189,-0.189,-0.1494,-0.1469,-0.1489,-0.1464,-0.1494,-0.1496,-0.1571,-0.1632,-0.1639,-0.1747,-0.1703,-0.1623,-0.1462,-0.1322,-0.1882,-0.1884,-0.1885,-0.1885,-0.1886,-0.1417,-0.1403,-0.1387,-0.1335,-0.129,-0.1341,-0.1253,-0.1365,-0.1478,-0.1449,-0.1294,-0.1294,-0.1155,-0.1431,-0.143,-0.1429,-0.1429,-0.1428,-0.1427,-0.1342,-0.1325,-0.1243,-0.1199,-0.1136,-0.1061,-0.1061,-0.1031,-0.1019,-0.1094,-0.1093,-0.1054,-0.1568,-0.1568,-0.1414,-0.1417,-0.1418,-0.142,-0.1421,-0.1255,-0.1234,-0.1112,-0.1033,-0.087,-0.0647,-0.067,-0.0475,-0.0509,-0.0435,-0.0499,-0.0916,-0.092,-0.0949,-0.0935,-0.0627,-0.0627,-0.0627,-0.0627,-0.1184,-0.1171,-0.0974,-0.0816,-0.062,-0.0456,0.0014,0.0212,0.0155,0.0145,-0.0095,-0.0125,-0.0164,-0.0131,-0.0179,-0.0154,0.0345,0.0346,0.0347,-0.1112,-0.1064,-0.0898,-0.074,-0.0503,-0.0177,0.0399,0.097,0.0825,0.0386,0.006,0.0019,-0.0043,-0.0116,-0.0095,-0.0174,-0.0148,0,0]}],[{"header":{"parameterUnit":"m.s-1","parameterCategory":2,"la1":30.2992,"la2":30.254,"lo1":-89.0895,"lo2":-89.0443,"dy":0.0025,"dx":0.0025,"nx":19,"ny":19,"refTime":"2026-05-06T03:00:00:Z","depth":"2","parameterNumber":2,"parameterNumberName":"U-component_of_CURRENTS"},"data":[0,0,0,0.3218,0.322,0.329,0.329,0.3321,0.3321,0,0,0,0,0,0,0,0,0,0,0,0.3192,0.3193,0.3218,0.322,0.329,0.329,0.3321,0.3321,0,0,0,0,0,0,0,0,0,0,0,0.3191,0.3192,0.3193,0.322,0.329,0.329,0.3321,0.328,0,0,0,0,0,0,0,0,0,0,0.3218,0.3205,0.3192,0.3193,0.3221,0.329,0.329,0.3278,0.3282,0.3277,0,0.3301,0,0.3319,0.3324,0.3324,0,0,0,0.3206,0.3202,0.3226,0.3193,0.3222,0.329,0.3254,0.3281,0.3285,0.3283,0.3302,0.3303,0.3319,0.3324,0.3324,0.338,0.3381,0,0,0.3203,0.3196,0.3223,0.3229,0.3256,0.3252,0.3257,0.3284,0.3291,0.3302,0.3304,0.332,0.3324,0.3324,0.338,0.338,0,0,0,0.3201,0.3193,0.3217,0.3227,0.3249,0.3255,0.326,0.3289,0.33,0.3305,0.332,0.3324,0.3324,0.3379,0.338,0.3414,0,0,0,0.3198,0.3193,0.3215,0.321,0.3249,0.3278,0.3265,0.3298,0.3302,0.332,0.3324,0.3325,0.3379,0.338,0.3412,0.3428,0,0,0,0.3186,0.3191,0.3206,0.321,0.3248,0.3278,0.329,0.3299,0.3311,0.3324,0.3325,0.3379,0.338,0.3411,0.3425,0.3481,0,0,0,0.3166,0.3179,0.3206,0.3234,0.3247,0.3299,0.329,0.3318,0.333,0.3324,0.3379,0.338,0.341,0.3423,0.3478,0.3356,0.3357,0,0,0.3163,0.3178,0.3196,0.3222,0.3259,0.3288,0.3338,0.3344,0.3342,0.3362,0.3364,0.3413,0.3425,0.348,0.3409,0.3408,0,0,0,0.3183,0.3188,0.3209,0.3243,0.3293,0.3339,0.3361,0.338,0.3403,0.3358,0.3422,0.3429,0.3463,0.3384,0.3384,0.3384,0.3384,0.3384,0.3384,0.3125,0.3168,0.3188,0.3243,0.3291,0.3371,0.3416,0.3446,0.3435,0.3454,0.3463,0.3537,0.3453,0.3451,0.3471,0.3471,0.3471,0.3471,0.3471,0.309,0.3083,0.3163,0.3195,0.3277,0.3334,0.3449,0.3475,0.3549,0.3512,0.3544,0.3431,0.3453,0.3474,0.3474,0.3473,0.3473,0.3473,0.3473,0.3015,0.3011,0.3063,0.3122,0.3199,0.331,0.3406,0.3496,0.357,0.3613,0.3537,0.3534,0.3565,0.3631,0.3631,0.3632,0.3632,0.3632,0.3632,0.2894,0.2944,0.2952,0.3041,0.3081,0.319,0.338,0.3484,0.3572,0.357,0.3569,0.3592,0.3586,0.3575,0.3637,0.3636,0.3636,0.3635,0.3635,0.2736,0.2798,0.2797,0.2834,0.2945,0.2945,0.3183,0.3337,0.3495,0.3519,0.3553,0.3553,0.3535,0.3533,0.352,0.3565,0.3565,0.3565,0.3565,0.2617,0.2652,0.264,0.2666,0.2738,0.282,0.2751,0.2828,0.309,0.3133,0.315,0.3045,0.3059,0.3009,0.3019,0.2993,0.2901,0.2899,0.2898,0.249,0.2523,0.2464,0.254,0.2618,0.2623,0.2373,0.22,0.2511,0.2863,0.2943,0.3538,0.3431,0.3435,0.3394,0.3395,0.3369,0,0]},{"header":{"parameterUnit":"m.s-1","parameterCategory":2,"la1":30.2992,"la2":30.254,"lo1":-89.0895,"lo2":-89.0443,"dy":0.0025,"dx":0.0025,"nx":19,"ny":19,"refTime":"2026-05-06T03:00:00:Z","depth":"2","parameterNumber":3,"parameterNumberName":"V-component_of_CURRENTS"},"data":[0,0,0,0.0327,0.0324,0.0154,0.0153,-0.006,-0.0061,0,0,0,0,0,0,0,0,0,0,0,0.0369,0.0368,0.0327,0.0324,0.0154,0.0153,-0.0059,-0.0061,0,0,0,0,0,0,0,0,0,0,0,0.037,0.0369,0.0367,0.0323,0.0154,0.0152,-0.0059,0.0062,0,0,0,0,0,0,0,0,0,0,0.0225,0.0263,0.0369,0.0367,0.0322,0.0154,0.0152,0.0068,0.0055,0.0027,0,-0.0001,0,-0.0019,-0.0073,-0.0074,0,0,0,0.03,0.0274,0.0244,0.0367,0.0321,0.0154,0.0224,0.006,0.0046,0.0009,-0.0004,-0.0011,-0.0022,-0.0074,-0.0075,-0.0127,-0.0127,0,0,0.0309,0.0321,0.0254,0.0234,0.0275,0.0229,0.0219,0.0051,0.0026,-0.0005,-0.0016,-0.0026,-0.0076,-0.0077,-0.0128,-0.0127,0,0,0,0.0352,0.0327,0.03,0.0243,0.0221,0.0225,0.0213,0.0033,0.0028,-0.0019,-0.0028,-0.0077,-0.0079,-0.0129,-0.0128,-0.001,0,0,0,0.0357,0.0355,0.0304,0.0307,0.0224,0.0123,0.0198,0.0039,0.002,-0.0027,-0.0077,-0.008,-0.013,-0.0128,-0.0015,0.0042,0,0,0,0.0377,0.0357,0.034,0.0309,0.0249,0.0126,0.0108,0.0034,0.0015,-0.0074,-0.0081,-0.013,-0.0129,-0.002,0.0034,0.0098,0,0,0,0.0391,0.0389,0.034,0.0343,0.0251,0.0238,0.0109,0.0048,-0.0018,-0.0077,-0.013,-0.0128,-0.0021,0.0029,0.0093,0.0303,0.0342,0,0,0.0412,0.039,0.0403,0.0358,0.038,0.026,0.0269,0.0105,0.0001,-0.0081,-0.0083,-0.0014,0.0034,0.0097,0.0406,0.0444,0,0,0,0.0429,0.0428,0.0432,0.042,0.0397,0.0371,0.023,0.017,0.0058,-0.0027,-0.001,0.0016,0.0053,0.0168,0.0198,-0.0119,-0.0119,-0.012,-0.012,0.0442,0.0458,0.0489,0.0499,0.0491,0.0426,0.0394,0.0283,0.016,0.0134,0.0115,0.0248,0.0374,0.0398,0.0113,0.0114,0.0114,0.0115,0.0115,0.0501,0.0541,0.0539,0.0568,0.0563,0.0551,0.0503,0.0421,0.0359,0.0239,0.0268,0.0291,0.0439,0.0124,0.0122,0.0121,0.012,0.0119,0.0119,0.0534,0.0567,0.0558,0.0606,0.0629,0.0613,0.0683,0.0582,0.0466,0.0482,0.0562,0.0562,0.0317,0.0471,0.0472,0.0472,0.0473,0.0473,0.0473,0.0589,0.0597,0.063,0.0659,0.0695,0.0756,0.0759,0.0798,0.0795,0.0718,0.0719,0.0368,0.0356,0.0337,0.0482,0.0481,0.0479,0.0479,0.0478,0.0687,0.0662,0.0733,0.0765,0.0883,0.1107,0.108,0.125,0.1192,0.1268,0.0863,0.0851,0.0832,0.0809,0.0801,0.1057,0.1057,0.1057,0.1057,0.0751,0.0746,0.0852,0.0951,0.1117,0.1283,0.161,0.1545,0.1378,0.1172,0.1165,0.1124,0.1102,0.1089,0.1059,0.1052,0.1373,0.1373,0.1373,0.083,0.085,0.0949,0.103,0.1237,0.1559,0.1889,0.1718,0.1367,0.1368,0.1036,0.1114,0.1036,0.1007,0.0965,0.0927,0.0906,0,0]}],[{"header":{"parameterUnit":"m.s-1","parameterCategory":2,"la1":30.2992,"la2":30.254,"lo1":-89.0895,"lo2":-89.0443,"dy":0.0025,"dx":0.0025,"nx":19,"ny":19,"refTime":"2026-05-06T03:00:00:Z","depth":"4","parameterNumber":2,"parameterNumberName":"U-component_of_CURRENTS"},"data":[0,0,0,0.0909,0.0912,0.1114,0.1115,0.1396,0.1398,0,0,0,0,0,0,0,0,0,0,0,0.0844,0.0846,0.0908,0.0913,0.1114,0.1115,0.1395,0.1398,0,0,0,0,0,0,0,0,0,0,0,0.0844,0.0845,0.0847,0.0914,0.1114,0.1115,0.1395,0.1239,0,0,0,0,0,0,0,0,0,0,0.1042,0.0983,0.0845,0.0847,0.0915,0.1114,0.1115,0.1232,0.1249,0.1308,0,0.1343,0,0.1373,0.1417,0.1418,0,0,0,0.0922,0.0968,0.1014,0.0847,0.0916,0.1113,0.1026,0.1241,0.1261,0.1331,0.1347,0.1357,0.1378,0.1419,0.142,0.1626,0.1627,0,0,0.0911,0.0893,0.1,0.1026,0.0975,0.1019,0.1032,0.1253,0.1282,0.1348,0.1364,0.1383,0.142,0.1423,0.1626,0.1626,0,0,0,0.0873,0.0885,0.0925,0.1015,0.1048,0.1025,0.104,0.1273,0.1284,0.1367,0.1386,0.1422,0.1425,0.1626,0.1626,0.1756,0,0,0,0.0867,0.0862,0.092,0.0913,0.1043,0.1162,0.1054,0.1269,0.1294,0.1385,0.1422,0.1428,0.1626,0.1626,0.1752,0.1753,0,0,0,0.0834,0.0859,0.0881,0.0911,0.0993,0.1158,0.1183,0.1275,0.1306,0.1418,0.1429,0.1626,0.1626,0.1748,0.1748,0.18,0,0,0,0.0808,0.086,0.0881,0.095,0.0991,0.112,0.1182,0.1296,0.1388,0.1423,0.1626,0.1626,0.1747,0.1745,0.1797,0.1514,0,0,0,0.0853,0.0865,0.0902,0.0926,0.1016,0.1093,0.1244,0.1382,0.1413,0.1556,0.1562,0.1753,0.1748,0.18,0.1543,0,0,0,0,0.0902,0.0922,0.096,0.1016,0.1108,0.1237,0.136,0.1431,0.1583,0.147,0.1726,0.1716,0.1746,0.157,0.1629,0.1628,0.1628,0.1628,0.1628,0.0906,0.0941,0.1009,0.1082,0.1175,0.1345,0.1465,0.1577,0.1639,0.1704,0.1805,0.1898,0.1717,0.1811,0.1812,0.1813,0.1813,0.1814,0.1814,0.0901,0.0925,0.1014,0.11,0.1245,0.1399,0.1605,0.1689,0.1881,0.1874,0.19,0.1695,0.1826,0.1824,0.1822,0.182,0.1819,0.1819,0.1818,0.0838,0.0866,0.0943,0.1061,0.1251,0.1452,0.161,0.1797,0.1936,0.2022,0.1841,0.196,0.1969,0.2077,0.2077,0.2077,0.2077,0.2078,0.2078,0.0735,0.0815,0.0884,0.1035,0.116,0.1339,0.1641,0.1742,0.1932,0.1901,0.2069,0.1985,0.1977,0.1981,0.2082,0.2081,0.2081,0.208,0.208,0.0634,0.0705,0.0766,0.0867,0.109,0.1194,0.1472,0.1633,0.175,0.1755,0.1826,0.1838,0.1751,0.1748,0.1741,0.1775,0.1772,0.1768,0,0.057,0.0602,0.0668,0.0759,0.0885,0.1091,0.1201,0.1359,0.1535,0.1494,0.1728,0.1802,0.181,0.1704,0.1696,0.168,0,0,0,0.0503,0.0539,0.0531,0.064,0.078,0.099,0.1219,0.1242,0.1513,0.151,0.1686,0.1708,0.1857,0.2095,0.1988,0.1977,0.1977,0,0]},{"header":{"parameterUnit":"m.s-1","parameterCategory":2,"la1":30.2992,"la2":30.254,"lo1":-89.0895,"lo2":-89.0443,"dy":0.0025,"dx":0.0025,"nx":19,"ny":19,"refTime":"2026-05-06T03:00:00:Z","depth":"4","parameterNumber":3,"parameterNumberName":"V-component_of_CURRENTS"},"data":[0,0,0,0.0718,0.0718,0.0712,0.0712,0.066,0.066,0,0,0,0,0,0,0,0,0,0,0,0.0731,0.0731,0.0718,0.0718,0.0712,0.0712,0.066,0.066,0,0,0,0,0,0,0,0,0,0,0,0.0731,0.0731,0.0732,0.0718,0.0712,0.0712,0.0661,0.0675,0,0,0,0,0,0,0,0,0,0,0.0686,0.0706,0.0731,0.0732,0.0718,0.0712,0.0712,0.0676,0.0674,0.0652,0,0.0665,0,0.0658,0.0656,0.0656,0,0,0,0.0713,0.0708,0.0705,0.0732,0.0718,0.0712,0.0713,0.0675,0.0673,0.065,0.0665,0.0663,0.0657,0.0656,0.0655,0.0604,0.0604,0,0,0.0713,0.0725,0.0707,0.0704,0.0733,0.0713,0.0713,0.0674,0.0678,0.0664,0.0661,0.0656,0.0655,0.0655,0.0605,0.0604,0,0,0,0.0718,0.0726,0.0725,0.0706,0.0707,0.0713,0.0713,0.068,0.068,0.0661,0.0656,0.0655,0.0654,0.0605,0.0605,0.0714,0,0,0,0.0718,0.0728,0.0725,0.0731,0.0708,0.0699,0.072,0.0683,0.0679,0.0656,0.0655,0.0653,0.0605,0.0605,0.0712,0.0755,0,0,0,0.0728,0.0729,0.0734,0.0732,0.073,0.07,0.0697,0.0682,0.0675,0.0656,0.0653,0.0605,0.0605,0.0709,0.075,0.0738,0,0,0,0.0732,0.0751,0.0735,0.0752,0.0731,0.0735,0.0698,0.0692,0.068,0.0654,0.0605,0.0605,0.0708,0.0748,0.0736,0.0679,0,0,0,0.0755,0.0754,0.0762,0.0747,0.0765,0.0734,0.0749,0.0716,0.0664,0.0614,0.0613,0.0712,0.075,0.0737,0.0662,0,0,0,0,0.0769,0.0783,0.0784,0.0791,0.0781,0.0792,0.0756,0.0729,0.0696,0.0656,0.0676,0.0695,0.0684,0.0643,0.0603,0.0603,0.0603,0.0603,0.0603,0.0819,0.0811,0.0841,0.0842,0.0848,0.0825,0.0816,0.0768,0.0733,0.0724,0.0758,0.0787,0.0747,0.0727,0.0728,0.0728,0.0729,0.0729,0.0729,0.0859,0.0876,0.0891,0.0929,0.0936,0.0963,0.0898,0.0869,0.0831,0.0802,0.0786,0.0729,0.0739,0.0737,0.0736,0.0735,0.0734,0.0733,0.0733,0.0888,0.0897,0.0943,0.1001,0.107,0.1069,0.1068,0.1012,0.0926,0.0925,0.0838,0.0833,0.0852,0.0922,0.0922,0.0923,0.0923,0.0923,0.0923,0.0893,0.0934,0.1,0.1075,0.1157,0.1198,0.118,0.1115,0.1028,0.0936,0.0959,0.0851,0.0844,0.0859,0.0925,0.0925,0.0925,0.0924,0.0924,0.0889,0.093,0.1018,0.1103,0.1244,0.1257,0.1265,0.1112,0.1048,0.0927,0.0904,0.0904,0.0846,0.0839,0.0851,0.0918,0.0918,0.0917,0,0.0885,0.0904,0.1008,0.1126,0.1212,0.1275,0.1191,0.1105,0.0965,0.0964,0.1006,0.0987,0.0984,0.0923,0.0916,0.0933,0,0,0,0.0869,0.0915,0.0954,0.108,0.1198,0.1162,0.1151,0.109,0.102,0.0895,0.0905,0.0908,0.0919,0.0933,0.0842,0.0834,0.0851,0,0]}]]